Temperature
13 13 13 13 13 13 14 14 14 15 14 14 14 14 15 15 15 15 15 16 16 16 16 16 16 16 16 16 16 16 16 16 16 16 16 16 16 16
13 13 13 13 13 13 13 14 14 14 14 14 14 14 14 14 15 15 15 15 15 15 15 15 16 16 16 16 16 16 16 16 16 16 16 16 16 16
13 13 13 13 13 13 13 13 14 14 14 14 14 14 14 14 14 14 14 14 15 15 15 15 15 15 15 15 15 15 15 15 16 16 16 16 16 16
13 13 13 13 13 13 13 13 13 13 14 14 13 13 13 13 14 14 14 14 14 15 15 15 15 15 15 15 15 15 15 15 15 15 15 15 15 15
13 13 13 13 13 13 13 13 13 13 13 13 13 13 13 13 13 13 13 14 14 14 14 14 14 14 14 15 15 15 15 15 15 15 15 15 15 15
13 13 13 13 13 13 13 13 13 13 13 13 13 13 13 13 13 13 13 13 13 13 13 14 14 14 14 14 14 14 14 14 14 14 14 14 14 15
13 13 13 13 13 13 13 13 13 13 13 13 13 13 13 13 13 13 13 13 13 13 13 13 13 13 13 13 14 14 14 14 14 14 14 14 14 14
14 13 13 13 13 13 13 13 13 12 13 13 13 13 13 13 12 12 12 13 13 12 12 12 12 12 12 12 13 13 13 13 13 13 13 13 13 13
14 14 13 13 13 13 13 13 13 13 13 12 13 13 13 12 12 12 12 12 12 12 12 12 12 12 12 12 13 13 13 13 13 13 13 13 13 13
13 13 13 13 13 13 13 13 12 12 13 12 12 12 12 12 12 12 12 12 12 12 12 12 12 12 12 12 12 12 12 12 12 12 12 12 12 12
13 13 13 13 13 13 13 13 12 12 12 12 12 12 12 12 12 12 12 12 12 12 12 12 12 12 11 11 11 12 11 11 11 12 12 12 12 12
13 13 14 13 13 13 13 13 12 12 12 12 12 12 12 12 12 12 11 12 12 12 11 11 11 11 11 11 10 11 11 11 11 11 11 11 11 11
14 13 13 14 13 13 13 13 12 12 12 12 12 12 11 11 12 11 11 11 12 12 11 11 11 11 11 11 10 10 10 10 10 10 10 11 11 11
13 13 13 13 13 13 13 13 12 12 12 12 12 12 11 11 11 11 11 11 11 11 11 11 10 10 10 10 10 10 9 9 9 9 9 9 10 10
13 13 13 13 13 13 13 12 12 12 11 11 11 11 11 11 11 11 11 11 11 11 10 10 10 10 10 10 10 9 9 9 9 9 9 9 9 9
13 13 13 13 13 12 12 12 12 11 11 11 11 11 11 11 11 11 10 10 10 10 10 10 10 10 9 9 9 9 8 8 8 8 8 8 8 8
12 12 12 12 12 12 11 11 11 11 11 11 11 11 11 10 10 10 10 10 9 9 9 9 9 9 9 9 8 8 8 7 7 7 8 8 7 7
11 11 11 12 12 12 11 11 11 11 11 11 11 10 10 10 10 10 10 9 9 9 9 9 8 8 8 8 8 8 7 7 7 7 7 7 7 7
10 11 11 11 11 11 11 11 11 11 11 10 10 10 10 10 10 9 9 9 9 8 8 8 8 8 8 8 7 8 7 6 6 6 6 6 6 7
10 10 11 11 11 11 11 11 11 10 10 10 10 10 10 10 9 9 9 8 8 8 7 7 7 7 7 7 7 6 7 6 6 6 6 6 6 7
9 10 10 10 11 11 11 11 11 11 10 10 10 10 9 9 9 9 8 8 8 7 7 7 7 7 7 7 6 6 5 6 6 6 5 5 5 5
9 9 9 10 10 10 10 10 10 10 10 10 9 9 9 9 9 8 8 8 7 7 7 6 6 7 6 5 5 5 5 5 5 5 5 5 4 4
8 9 9 9 9 10 10 10 10 10 10 9 9 9 9 9 8 8 7 7 7 6 6 6 5 5 5 5 5 5 4 4 4 4 4 4 4 4
Wind_Speed
3 2 2 1 2 2 1 1 1 2 3 3 2 2 2 2 2 3 4 5 5 6 7 7 7 7 7 6 7 6 6 6 7 8 9 10 11 12
2 2 2 1 1 1 1 1 2 2 2 3 2 2 1 3 2 2 4 6 6 6 6 6 6 6 6 6 6 5 5 5 6 7 7 8 9 9
1 1 1 2 1 1 1 1 1 1 2 2 2 2 2 2 3 3 3 3 4 5 6 6 6 6 6 6 6 5 5 5 6 6 6 6 7 8
2 1 1 0 1 1 1 1 1 1 2 3 3 2 2 2 2 2 2 2 3 6 5 5 6 6 6 6 6 5 4 4 5 5 5 5 5 6
3 2 2 1 1 0 1 1 1 1 1 2 3 2 1 2 2 2 3 2 3 5 6 6 5 5 5 5 5 5 4 3 3 3 4 4 4 5
4 4 3 3 2 1 1 2 1 2 2 2 2 2 2 1 2 2 2 2 2 2 3 4 6 6 6 5 5 4 4 3 2 2 2 2 2 3
5 5 4 2 2 2 2 2 3 3 3 3 3 3 3 3 2 2 2 3 2 1 2 3 4 4 5 6 6 5 4 3 2 2 1 0 1 2
7 6 6 6 6 5 4 3 3 4 3 3 3 4 4 3 2 3 3 3 3 2 2 2 2 2 2 4 6 6 5 5 4 3 2 1 1 3
8 7 6 6 7 7 8 8 6 4 4 4 4 4 4 4 4 4 3 3 2 2 2 3 3 3 3 5 7 6 6 6 5 5 4 3 3 3
10 9 9 9 8 8 7 7 7 6 6 6 5 4 3 3 4 3 3 3 3 2 3 3 3 3 3 5 8 7 7 6 6 5 4 4 4 5
12 11 11 11 9 9 9 8 8 6 5 2 2 2 4 2 2 4 4 5 4 4 3 3 2 2 3 4 7 8 7 6 6 5 4 4 5 7
11 11 11 12 9 12 12 10 10 8 7 7 6 5 5 5 5 6 5 5 4 4 4 3 3 3 3 3 4 5 5 6 5 3 3 4 6 7
11 11 10 14 12 14 13 11 9 8 8 8 7 7 6 6 6 6 5 4 4 3 3 4 3 3 3 2 3 3 2 1 2 2 3 2 3 5
11 11 9 14 15 15 13 10 7 7 7 7 7 7 7 6 6 6 5 4 2 1 2 3 3 3 3 4 3 3 2 2 2 3 3 1 2 3
11 9 7 11 13 13 13 12 11 9 9 9 9 8 7 7 6 5 6 5 4 3 2 2 3 3 4 4 4 3 3 3 3 3 3 4 4 4
12 9 9 10 10 9 11 12 11 11 10 10 9 8 7 7 7 7 6 6 5 4 3 2 2 3 4 4 4 4 4 3 3 3 4 5 5 5
10 10 10 10 11 11 11 12 12 11 11 10 9 9 8 8 7 7 7 7 7 6 5 4 3 3 3 4 5 5 4 4 4 4 5 6 6 6
10 11 12 13 13 13 13 13 13 12 12 11 11 10 10 9 8 7 7 7 7 6 6 5 4 4 4 4 3 5 4 4 4 4 5 7 7 6
13 13 13 14 14 13 13 13 13 13 12 12 12 11 10 10 9 9 8 8 7 6 6 5 5 5 6 6 4 4 4 4 4 5 6 7 8 8
13 14 14 13 13 13 13 13 13 12 12 12 12 12 11 11 10 10 9 9 8 7 6 6 5 5 5 4 3 3 5 5 5 6 7 7 8 9
12 13 13 13 13 13 13 13 13 13 13 13 12 13 12 11 11 10 9 9 8 8 8 7 4 3 3 3 4 5 4 6 6 6 7 8 8 8
11 12 12 13 13 12 13 13 13 13 14 14 13 13 12 12 12 12 11 10 9 8 7 5 6 5 5 6 6 6 5 4 8 13 13 11 7 6
11 11 11 11 12 11 12 14 16 14 14 14 13 13 13 12 11 11 11 10 9 9 8 7 6 6 6 6 6 6 7 7 6 7 8 13 19 20
Wind_Direction
354 353 344 13 329 335 321 275 245 195 165 156 153 140 153 125 141 168 144 135 153 163 166 169 168 168 177 181 185 192 201 207 209 213 217 225 233 236
323 326 343 2 12 350 328 303 290 251 173 149 139 138 120 143 112 117 122 145 156 160 165 167 168 169 170 177 180 190 201 210 215 216 220 227 236 241
265 298 341 350 341 346 311 285 276 257 179 146 138 134 143 127 119 114 121 141 138 140 160 166 167 168 172 178 183 188 196 206 212 212 215 225 235 241
281 267 275 320 301 318 292 256 261 271 217 164 156 147 136 114 114 110 106 100 108 112 139 161 165 163 164 172 175 180 187 200 207 214 222 232 239 245
267 266 261 245 254 219 238 231 222 184 199 186 165 145 158 146 125 111 102 92 96 113 123 132 136 146 151 157 163 162 165 180 198 214 226 236 242 251
247 248 255 250 254 235 224 225 218 193 189 195 177 174 170 177 184 162 138 128 122 114 104 117 124 127 126 125 126 129 133 138 153 177 208 231 247 260
239 237 236 249 343 295 264 236 214 213 203 199 194 194 190 191 196 190 173 157 146 162 166 155 156 149 143 132 117 108 107 108 115 123 116 315 298 289
243 236 224 209 207 210 233 264 278 241 222 207 208 208 205 199 194 204 198 194 177 161 203 164 178 156 134 107 94 102 100 97 91 82 71 40 339 315
248 239 229 220 213 216 202 206 220 239 263 254 227 219 213 203 203 207 207 217 206 149 210 182 171 159 138 102 101 105 101 94 88 79 59 33 1 329
242 241 234 228 217 221 217 215 217 209 214 231 238 231 219 200 208 216 203 196 193 181 216 209 181 171 150 131 116 110 104 93 82 69 50 22 346 316
238 235 235 232 201 202 224 223 221 213 184 196 4 61 74 89 199 197 195 201 198 181 190 215 192 189 180 161 137 133 121 105 86 72 52 22 341 302
236 233 226 234 203 190 218 224 225 219 203 189 193 191 196 184 204 220 214 218 208 189 172 205 198 206 198 173 167 168 159 142 133 113 72 28 350 313
238 232 225 201 207 200 219 229 224 221 212 207 203 199 198 196 194 207 217 228 227 209 165 196 209 218 229 198 197 200 220 226 217 197 166 108 8 336
242 238 227 188 198 202 212 218 193 199 218 212 209 204 200 199 196 193 189 193 218 215 174 207 224 230 239 241 232 208 224 261 286 297 297 214 222 204
244 241 225 186 193 205 210 200 191 206 212 212 212 208 203 196 185 177 174 169 161 145 159 207 225 232 243 251 255 253 260 264 279 289 297 303 303 297
241 228 204 198 210 216 197 198 210 213 211 212 211 206 194 185 184 181 179 177 173 166 161 175 208 221 234 240 250 258 262 265 269 281 291 293 291 289
227 225 219 210 209 211 210 206 206 207 208 212 208 199 192 189 186 185 186 189 198 191 179 179 183 194 230 250 243 246 252 256 265 281 286 285 282 280
225 226 221 217 213 211 209 207 206 206 205 204 203 198 192 191 185 182 187 194 200 196 186 180 184 196 211 211 235 250 252 259 271 277 279 283 284 286
227 230 225 220 217 214 211 209 208 205 202 201 199 196 193 190 187 185 188 193 196 193 186 185 198 215 230 232 184 207 254 266 275 276 276 281 286 291
231 231 227 222 218 215 211 209 206 201 198 198 197 195 191 189 187 189 190 193 192 188 186 190 204 216 235 259 252 207 208 254 272 279 286 288 285 281
234 234 230 224 219 214 211 207 203 200 197 196 196 193 190 189 189 190 189 183 190 190 195 197 180 186 223 237 242 238 225 202 240 272 291 294 293 289
241 237 233 228 220 214 208 203 202 199 197 196 194 191 190 189 189 188 187 185 190 195 196 182 164 186 212 230 248 261 263 253 223 223 238 252 276 292
248 241 237 230 222 213 207 204 201 199 196 195 191 189 188 188 187 186 186 186 186 188 186 184 186 199 218 233 251 263 271 277 281 276 261 229 231 248
Height
1504 1504 1503 1503 1503 1503 1503 1503 1505 1505 1505 1506 1507 1508 1509 1510 1511 1513 1514 1515 1517 1518 1520 1522 1523 1525 1527 1529 1531 1533 1535 1536 1538 1540 1541 1542 1544 1545
1504 1504 1503 1503 1503 1502 1502 1503 1503 1504 1505 1506 1506 1507 1508 1509 1510 1511 1512 1513 1515 1516 1518 1520 1521 1523 1525 1527 1528 1530 1532 1533 1535 1536 1538 1539 1540 1541
1505 1504 1503 1503 1503 1502 1502 1502 1503 1503 1504 1505 1506 1506 1507 1508 1509 1510 1511 1512 1513 1514 1516 1518 1519 1521 1522 1524 1525 1527 1528 1530 1531 1533 1534 1535 1536 1537
1506 1505 1504 1503 1502 1502 1502 1502 1502 1502 1503 1504 1505 1505 1506 1507 1508 1508 1509 1511 1512 1512 1514 1515 1517 1518 1520 1521 1523 1524 1525 1527 1528 1529 1530 1531 1532 1533
1505 1504 1504 1503 1502 1502 1501 1501 1501 1501 1502 1503 1504 1504 1505 1506 1507 1508 1509 1509 1510 1511 1512 1513 1515 1516 1517 1519 1520 1521 1522 1523 1525 1526 1526 1527 1528 1528
1504 1503 1503 1503 1502 1502 1501 1501 1500 1501 1501 1502 1503 1503 1504 1505 1506 1507 1508 1508 1509 1510 1511 1512 1513 1514 1515 1516 1517 1518 1519 1520 1521 1522 1523 1523 1524 1524
1503 1502 1501 1501 1500 1500 1500 1500 1500 1500 1501 1501 1502 1502 1503 1503 1505 1505 1507 1507 1508 1509 1510 1511 1511 1512 1513 1513 1514 1515 1516 1517 1518 1518 1519 1520 1520 1520
1501 1500 1499 1498 1498 1498 1498 1498 1498 1499 1500 1500 1501 1501 1502 1503 1503 1504 1505 1507 1508 1508 1509 1510 1510 1511 1512 1512 1512 1513 1513 1514 1514 1515 1515 1516 1516 1516
1498 1498 1497 1497 1496 1497 1496 1496 1496 1497 1497 1499 1499 1500 1501 1501 1502 1503 1504 1505 1506 1506 1507 1508 1509 1510 1509 1509 1509 1510 1511 1511 1511 1512 1512 1512 1512 1512
1493 1494 1494 1494 1493 1494 1495 1495 1495 1495 1495 1496 1497 1498 1499 1499 1500 1501 1502 1503 1504 1504 1505 1507 1507 1508 1508 1507 1507 1508 1508 1508 1508 1508 1508 1508 1508 1508
1488 1489 1489 1489 1490 1490 1491 1492 1492 1493 1493 1493 1494 1495 1496 1497 1498 1499 1500 1501 1502 1503 1503 1505 1505 1506 1506 1506 1505 1505 1505 1505 1505 1505 1505 1504 1504 1504
1483 1483 1483 1484 1485 1485 1487 1488 1489 1490 1490 1490 1491 1492 1493 1494 1495 1496 1498 1499 1500 1501 1500 1502 1503 1504 1505 1504 1503 1503 1503 1502 1502 1502 1501 1501 1500 1500
1478 1477 1477 1478 1479 1480 1482 1483 1484 1486 1487 1487 1488 1489 1490 1491 1491 1493 1494 1496 1497 1498 1498 1499 1500 1501 1502 1502 1501 1501 1501 1500 1499 1498 1497 1497 1496 1496
1471 1472 1472 1472 1473 1474 1476 1477 1479 1481 1482 1483 1484 1485 1486 1487 1488 1489 1490 1491 1493 1494 1495 1495 1497 1497 1498 1498 1499 1498 1498 1497 1496 1496 1495 1493 1492 1491
1463 1464 1465 1466 1467 1468 1470 1471 1473 1475 1476 1478 1479 1480 1482 1483 1484 1485 1486 1487 1489 1489 1490 1491 1493 1493 1494 1495 1495 1495 1495 1494 1493 1492 1491 1490 1489 1488
1455 1456 1457 1458 1460 1461 1463 1464 1466 1468 1470 1472 1474 1476 1477 1478 1479 1480 1481 1483 1484 1485 1486 1487 1488 1489 1489 1490 1490 1490 1490 1490 1489 1488 1487 1485 1485 1483
1447 1448 1449 1450 1451 1453 1455 1457 1459 1461 1463 1465 1468 1469 1471 1472 1473 1475 1477 1479 1480 1481 1482 1482 1483 1484 1485 1486 1486 1486 1486 1485 1485 1484 1482 1481 1480 1479
1439 1439 1440 1441 1442 1444 1446 1449 1451 1453 1455 1458 1460 1462 1464 1466 1468 1470 1472 1474 1476 1477 1478 1478 1479 1480 1481 1481 1482 1481 1482 1481 1480 1479 1478 1476 1475 1474
1429 1429 1430 1432 1433 1435 1438 1440 1442 1445 1447 1450 1453 1455 1457 1460 1462 1464 1466 1468 1470 1472 1473 1474 1475 1476 1478 1479 1477 1476 1477 1476 1475 1474 1473 1472 1470 1468
1418 1420 1421 1422 1424 1426 1429 1431 1434 1437 1439 1442 1445 1448 1450 1453 1455 1458 1460 1463 1465 1467 1468 1469 1470 1471 1473 1474 1474 1472 1471 1471 1470 1469 1468 1466 1464 1462
1409 1410 1412 1413 1415 1417 1420 1422 1425 1428 1431 1434 1437 1440 1443 1446 1449 1452 1454 1457 1459 1461 1463 1464 1465 1466 1467 1467 1468 1468 1467 1465 1465 1464 1462 1460 1458 1456
1401 1402 1402 1404 1406 1408 1410 1413 1416 1420 1423 1426 1429 1432 1435 1439 1442 1445 1448 1450 1453 1456 1458 1459 1459 1461 1462 1463 1463 1463 1463 1462 1459 1458 1456 1455 1453 1451
1393 1393 1394 1395 1396 1398 1401 1404 1407 1411 1414 1417 1421 1424 1428 1431 1435 1438 1441 1444 1447 1450 1452 1454 1455 1456 1457 1458 1458 1458 1458 1457 1455 1453 1452 1449 1447 1445